This is the latest recevied weather packets stored in our database for station/object KC2TER. If no packets are shown the sender has not sent any weather packets the latest 10 day(s).
| Time | Temp. | Humidity | Pressure | Rain* | Wind** | Luminosity | Snow |
|---|---|---|---|---|---|---|---|
| 1778063999 | 16.11° C | 85% | 1010.8 hPa | 0 mm | - | 26 W/m² | - |
| 1778063695 | 16.11° C | 85% | 1010.5 hPa | 0 mm | - | 20 W/m² | - |
| 1778063392 | 16.11° C | 85% | 1010.4 hPa | 0 mm | - | 14 W/m² | - |
| 1778063090 | 16.11° C | 85% | 1010.5 hPa | 0 mm | - | 10 W/m² | - |
| 1778062787 | 16.11° C | 85% | 1010.6 hPa | 0 mm | - | 9 W/m² | - |
| 1778062484 | 16.11° C | 85% | 1010.4 hPa | 0 mm | - | 8 W/m² | - |
| 1778062181 | 16.11° C | 85% | 1010.4 hPa | 0 mm | - | 7 W/m² | - |
| 1778061879 | 16.11° C | 85% | 1010.3 hPa | 0 mm | - | 4 W/m² | - |
| 1778061577 | 16.11° C | 85% | 1010.3 hPa | 0 mm | - | 3 W/m² | - |
| 1778061275 | 16.11° C | 85% | 1010.3 hPa | 0 mm | - | 1 W/m² | - |
| 1778060971 | 16.11° C | 85% | 1010.4 hPa | 0 mm | - | 0 W/m² | - |
| 1778060670 | 16.11° C | 85% | 1010.3 hPa | 0 mm | - | 0 W/m² | - |
| 1778060367 | 16.67° C | 85% | 1010.4 hPa | 0 mm | - | 0 W/m² | - |
| 1778060065 | 16.67° C | 85% | 1010.4 hPa | 0 mm | - | 0 W/m² | - |
| 1778059763 | 16.67° C | 84% | 1010.5 hPa | 0 mm | - | 0 W/m² | - |
| 1778059461 | 16.67° C | 85% | 1010.3 hPa | 0 mm | - | 0 W/m² | - |
| 1778059156 | 16.67° C | 85% | 1010.5 hPa | 0 mm | - | 0 W/m² | - |
| 1778058855 | 16.67° C | 85% | 1010.4 hPa | 0 mm | - | 0 W/m² | - |
| 1778058551 | 16.67° C | 85% | 1010.4 hPa | 0 mm | - | 0 W/m² | - |
| 1778058249 | 16.67° C | 85% | 1010.7 hPa | 0 mm | - | 0 W/m² | - |
| 1778057946 | 16.67° C | 85% | 1010.5 hPa | 0 mm | - | 0 W/m² | - |
| 1778057642 | 16.67° C | 85% | 1010.5 hPa | 0 mm | - | 0 W/m² | - |
| 1778057338 | 16.67° C | 85% | 1010.7 hPa | 0 mm | - | 0 W/m² | - |
| 1778057035 | 16.67° C | 84% | 1010.7 hPa | 0 mm | - | 0 W/m² | - |
| 1778056732 | 16.67° C | 85% | 1010.8 hPa | 0 mm | - | 0 W/m² | - |
* Rain latest hour (hover to see other rain measurements)
** Current wind speed in m/s (hover to see current wind gust speed)